Time,TemperatureF,DewpointF,PressureIn,WindDirection,WindDirectionDegrees,WindSpeedMPH,WindSpeedGustMPH,Humidity,HourlyPrecipIn,Conditions,Clouds,dailyrainin,SoftwareType,DateUTC
2013-04-06 00:00:00,38.0,-99.9,29.89,NW,324,3.0,13.0,-999,0.00,,---,-99.99,VWS V14.01,2013-04-06 04:00:00,
2013-04-06 00:05:00,38.0,-99.9,29.89,NW,308,4.0,11.0,-999,0.00,,---,-99.99,VWS V14.01,2013-04-06 04:05:00,
2013-04-06 00:10:00,37.9,-99.9,29.89,NW,306,9.0,11.0,-999,0.00,,---,-99.99,VWS V14.01,2013-04-06 04:10:00,
2013-04-06 00:15:00,37.9,-99.9,29.89,West,281,6.0,15.0,-999,0.00,,---,-99.99,VWS V14.01,2013-04-06 04:15:00,
2013-04-06 00:20:00,37.8,-99.9,29.89,NNW,342,11.0,17.0,-999,0.00,,---,-99.99,VWS V14.01,2013-04-06 04:20:00,
2013-04-06 00:25:00,37.7,-99.9,29.89,West,275,4.0,17.0,-999,0.00,,---,-99.99,VWS V14.01,2013-04-06 04:25:00,
2013-04-06 00:30:00,37.5,-99.9,29.90,WNW,303,4.0,17.0,-999,0.00,,---,-99.99,VWS V14.01,2013-04-06 04:30:00,
2013-04-06 00:35:00,37.4,-99.9,29.89,WNW,302,6.0,13.0,-999,0.00,,---,-99.99,VWS V14.01,2013-04-06 04:35:00,
2013-04-06 00:40:00,37.2,-99.9,29.90,WNW,283,2.0,13.0,-999,0.00,,---,-99.99,VWS V14.01,2013-04-06 04:40:00,
2013-04-06 00:45:00,37.0,-99.9,29.90,NNW,338,3.0,13.0,-999,0.00,,---,-99.99,VWS V14.01,2013-04-06 04:45:00,
2013-04-06 00:50:00,36.9,-99.9,29.90,WNW,299,4.0,13.0,-999,0.00,,---,-99.99,VWS V14.01,2013-04-06 04:50:00,
2013-04-06 00:55:00,36.8,-99.9,29.90,NW,306,6.0,13.0,-999,0.00,,---,-99.99,VWS V14.01,2013-04-06 04:55:00,
2013-04-06 01:00:00,36.7,-99.9,29.90,North,0,4.0,16.0,-999,0.00,,---,-99.99,VWS V14.01,2013-04-06 05:00:00,
2013-04-06 01:05:00,36.6,-99.9,29.91,West,278,4.0,17.0,-999,0.00,,---,-99.99,VWS V14.01,2013-04-06 05:05:00,
2013-04-06 01:10:00,36.5,-99.9,29.91,West,275,5.0,17.0,-999,0.00,,---,-99.99,VWS V14.01,2013-04-06 05:10:00,
2013-04-06 01:15:00,36.3,-99.9,29.91,NW,322,5.0,17.0,-999,0.00,,---,-99.99,VWS V14.01,2013-04-06 05:15:00,
2013-04-06 01:20:00,36.2,-99.9,29.92,WSW,246,3.0,17.0,-999,0.00,,---,-99.99,VWS V14.01,2013-04-06 05:20:00,
2013-04-06 01:25:00,36.1,-99.9,29.92,WNW,290,4.0,17.0,-999,0.00,,---,-99.99,VWS V14.01,2013-04-06 05:25:00,
2013-04-06 01:30:00,36.0,-99.9,29.92,NW,317,4.0,17.0,-999,0.00,,---,-99.99,VWS V14.01,2013-04-06 05:30:00,
2013-04-06 01:35:00,35.9,-99.9,29.92,WSW,252,3.0,17.0,-999,0.00,,---,-99.99,VWS V14.01,2013-04-06 05:35:00,
2013-04-06 01:40:00,35.8,-99.9,29.92,WNW,302,6.0,17.0,-999,0.00,,---,-99.99,VWS V14.01,2013-04-06 05:40:00,
2013-04-06 01:45:00,35.7,-99.9,29.93,WNW,294,6.0,17.0,-999,0.00,,---,-99.99,VWS V14.01,2013-04-06 05:45:00,
2013-04-06 01:50:00,35.6,-99.9,29.93,NW,312,6.0,17.0,-999,0.00,,---,-99.99,VWS V14.01,2013-04-06 05:50:00,
2013-04-06 01:55:00,35.4,-99.9,29.93,NNW,331,11.0,18.0,-999,0.00,,---,-99.99,VWS V14.01,2013-04-06 05:55:00,
2013-04-06 02:00:00,35.3,-99.9,29.93,NNW,331,6.0,19.0,-999,0.00,,---,-99.99,VWS V14.01,2013-04-06 06:00:00,
2013-04-06 02:05:00,35.2,-99.9,29.93,NNW,328,4.0,20.0,-999,0.00,,---,-99.99,VWS V14.01,2013-04-06 06:05:00,
2013-04-06 02:10:00,35.1,-99.9,29.93,North,354,4.0,20.0,-999,0.00,,---,-99.99,VWS V14.01,2013-04-06 06:10:00,
2013-04-06 02:15:00,35.0,-99.9,29.94,WNW,299,8.0,20.0,-999,0.00,,---,-99.99,VWS V14.01,2013-04-06 06:15:00,
2013-04-06 02:20:00,34.8,-99.9,29.93,NW,306,6.0,20.0,-999,0.00,,---,-99.99,VWS V14.01,2013-04-06 06:20:00,
2013-04-06 02:25:00,34.7,-99.9,29.93,WNW,297,10.0,21.0,-999,0.00,,---,-99.99,VWS V14.01,2013-04-06 06:25:00,
2013-04-06 02:30:00,34.6,-99.9,29.94,North,349,12.0,21.0,-999,0.00,,---,-99.99,VWS V14.01,2013-04-06 06:30:00,
2013-04-06 02:35:00,34.5,-99.9,29.94,NNW,345,2.0,13.0,-999,0.00,,---,-99.99,VWS V14.01,2013-04-06 06:35:00,
2013-04-06 02:40:00,34.3,-99.9,29.94,NW,310,8.0,17.0,-999,0.00,,---,-99.99,VWS V14.01,2013-04-06 06:40:00,
2013-04-06 02:45:00,34.2,-99.9,29.94,NW,306,9.0,20.0,-999,0.00,,---,-99.99,VWS V14.01,2013-04-06 06:45:00,
2013-04-06 02:50:00,34.1,-99.9,29.95,West,271,3.0,20.0,-999,0.00,,---,-99.99,VWS V14.01,2013-04-06 06:50:00,
2013-04-06 02:55:00,33.9,-99.9,29.95,North,1,8.0,20.0,-999,0.00,,---,-99.99,VWS V14.01,2013-04-06 06:55:00,
2013-04-06 03:00:00,33.7,-99.9,29.95,West,260,7.0,20.0,-999,0.00,,---,-99.99,VWS V14.01,2013-04-06 07:00:00,
2013-04-06 03:05:00,33.6,-99.9,29.96,NW,306,10.0,13.0,-999,0.00,,---,-99.99,VWS V14.01,2013-04-06 07:05:00,
2013-04-06 03:10:00,33.5,-99.9,29.96,WNW,296,4.0,13.0,-999,0.00,,---,-99.99,VWS V14.01,2013-04-06 07:10:00,
2013-04-06 03:15:00,33.4,-99.9,29.96,West,259,4.0,15.0,-999,0.00,,---,-99.99,VWS V14.01,2013-04-06 07:15:00,
2013-04-06 03:20:00,33.3,-99.9,29.96,NW,323,9.0,15.0,-999,0.00,,---,-99.99,VWS V14.01,2013-04-06 07:20:00,
2013-04-06 03:25:00,33.2,-99.9,29.96,WNW,295,6.0,15.0,-999,0.00,,---,-99.99,VWS V14.01,2013-04-06 07:25:00,
2013-04-06 03:30:00,33.2,-99.9,29.97,NW,313,5.0,15.0,-999,0.00,,---,-99.99,VWS V14.01,2013-04-06 07:30:00,
2013-04-06 03:36:00,33.1,-99.9,29.97,NW,308,7.0,22.0,-999,0.00,,---,-99.99,VWS V14.01,2013-04-06 07:36:00,
2013-04-06 03:41:00,33.1,-99.9,29.97,West,268,7.0,22.0,-999,0.00,,---,-99.99,VWS V14.01,2013-04-06 07:41:00,
2013-04-06 03:46:00,33.0,-99.9,29.98,WNW,289,13.0,22.0,-999,0.00,,---,-99.99,VWS V14.01,2013-04-06 07:46:00,
2013-04-06 03:51:00,32.9,-99.9,29.98,NW,313,4.0,22.0,-999,0.00,,---,-99.99,VWS V14.01,2013-04-06 07:51:00,
2013-04-06 03:56:00,32.7,-99.9,29.99,West,277,8.0,22.0,-999,0.00,,---,-99.99,VWS V14.01,2013-04-06 07:56:00,
2013-04-06 04:01:00,32.6,-99.9,29.99,NW,305,2.0,22.0,-999,0.00,,---,-99.99,VWS V14.01,2013-04-06 08:01:00,
2013-04-06 04:06:00,32.4,-99.9,30.00,WNW,287,5.0,8.0,-999,0.00,,---,-99.99,VWS V14.01,2013-04-06 08:06:00,
2013-04-06 04:11:00,32.3,-99.9,30.00,NW,311,10.0,14.0,-999,0.00,,---,-99.99,VWS V14.01,2013-04-06 08:11:00,
2013-04-06 04:16:00,32.2,-99.9,30.00,NNW,345,7.0,14.0,-999,0.00,,---,-99.99,VWS V14.01,2013-04-06 08:16:00,
2013-04-06 04:21:00,32.2,-99.9,30.01,NW,325,3.0,19.0,-999,0.00,,---,-99.99,VWS V14.01,2013-04-06 08:21:00,
2013-04-06 04:26:00,32.2,-99.9,30.01,NW,310,8.0,19.0,-999,0.00,,---,-99.99,VWS V14.01,2013-04-06 08:26:00,
2013-04-06 04:31:00,32.1,-99.9,30.01,NW,305,3.0,19.0,-999,0.00,,---,-99.99,VWS V14.01,2013-04-06 08:31:00,
2013-04-06 04:36:00,32.0,-99.9,30.01,NW,310,4.0,12.0,-999,0.00,,---,-99.99,VWS V14.01,2013-04-06 08:36:00,
2013-04-06 04:41:00,31.9,-99.9,30.02,NNW,330,7.0,13.0,-999,0.00,,---,-99.99,VWS V14.01,2013-04-06 08:41:00,
2013-04-06 04:46:00,31.9,-99.9,30.02,West,275,7.0,17.0,-999,0.00,,---,-99.99,VWS V14.01,2013-04-06 08:46:00,
2013-04-06 04:51:00,31.8,-99.9,30.03,NW,319,7.0,17.0,-999,0.00,,---,-99.99,VWS V14.01,2013-04-06 08:51:00,
2013-04-06 04:56:00,31.7,-99.9,30.03,WNW,297,8.0,17.0,-999,0.00,,---,-99.99,VWS V14.01,2013-04-06 08:56:00,
2013-04-06 05:01:00,31.6,-99.9,30.04,West,274,5.0,17.0,-999,0.00,,---,-99.99,VWS V14.01,2013-04-06 09:01:00,
2013-04-06 05:06:00,31.5,-99.9,30.05,WNW,291,12.0,15.0,-999,0.00,,---,-99.99,VWS V14.01,2013-04-06 09:06:00,
2013-04-06 05:11:00,31.4,-99.9,30.05,NNW,337,9.0,15.0,-999,0.00,,---,-99.99,VWS V14.01,2013-04-06 09:11:00,
2013-04-06 05:16:00,31.4,-99.9,30.05,WNW,285,13.0,18.0,-999,0.00,,---,-99.99,VWS V14.01,2013-04-06 09:16:00,
2013-04-06 05:21:00,31.4,-99.9,30.06,WNW,299,8.0,24.0,-999,0.00,,---,-99.99,VWS V14.01,2013-04-06 09:21:00,
2013-04-06 05:26:00,31.3,-99.9,30.06,NW,325,6.0,24.0,-999,0.00,,---,-99.99,VWS V14.01,2013-04-06 09:26:00,
2013-04-06 05:31:00,31.1,-99.9,30.06,WNW,296,1.0,24.0,-999,0.00,,---,-99.99,VWS V14.01,2013-04-06 09:31:00,
2013-04-06 05:36:00,31.0,-99.9,30.07,NNW,348,14.0,22.0,-999,0.00,,---,-99.99,VWS V14.01,2013-04-06 09:36:00,
2013-04-06 05:41:00,30.9,-99.9,30.07,NW,310,12.0,22.0,-999,0.00,,---,-99.99,VWS V14.01,2013-04-06 09:41:00,
2013-04-06 05:46:00,30.8,-99.9,30.08,North,0,10.0,25.0,-999,0.00,,---,-99.99,VWS V14.01,2013-04-06 09:46:00,
2013-04-06 05:51:00,30.8,-99.9,30.08,SW,228,10.0,25.0,-999,0.00,,---,-99.99,VWS V14.01,2013-04-06 09:51:00,
2013-04-06 05:56:00,30.6,-99.9,30.08,WNW,284,12.0,25.0,-999,0.00,,---,-99.99,VWS V14.01,2013-04-06 09:56:00,
2013-04-06 06:01:00,30.5,-99.9,30.08,NW,322,8.0,25.0,-999,0.00,,---,-99.99,VWS V14.01,2013-04-06 10:01:00,
2013-04-06 06:06:00,30.4,-99.9,30.09,WNW,282,5.0,13.0,-999,0.00,,---,-99.99,VWS V14.01,2013-04-06 10:06:00,
2013-04-06 06:11:00,30.3,-99.9,30.09,WNW,297,5.0,18.0,-999,0.00,,---,-99.99,VWS V14.01,2013-04-06 10:11:00,
2013-04-06 06:16:00,30.2,-99.9,30.09,WNW,297,3.0,18.0,-999,0.00,,---,-99.99,VWS V14.01,2013-04-06 10:16:00,
2013-04-06 06:21:00,30.1,-99.9,30.09,WSW,243,4.0,18.0,-999,0.00,,---,-99.99,VWS V14.01,2013-04-06 10:21:00,
2013-04-06 06:26:00,30.1,-99.9,30.10,NNW,334,4.0,18.0,-999,0.00,,---,-99.99,VWS V14.01,2013-04-06 10:26:00,
2013-04-06 06:31:00,30.0,-99.9,30.10,NW,316,8.0,18.0,-999,0.00,,---,-99.99,VWS V14.01,2013-04-06 10:31:00,
2013-04-06 06:36:00,29.9,-99.9,30.11,North,353,12.0,30.0,-999,0.00,,---,-99.99,VWS V14.01,2013-04-06 10:36:00,
2013-04-06 06:41:00,29.9,-99.9,30.11,WNW,298,6.0,30.0,-999,0.00,,---,-99.99,VWS V14.01,2013-04-06 10:41:00,
2013-04-06 06:47:00,29.9,-99.9,30.11,WNW,289,9.0,30.0,-999,0.00,,---,-99.99,VWS V14.01,2013-04-06 10:47:00,
2013-04-06 06:52:00,29.9,-99.9,30.11,NW,306,3.0,30.0,-999,0.00,,---,-99.99,VWS V14.01,2013-04-06 10:52:00,
2013-04-06 06:57:00,29.9,-99.9,30.12,WSW,239,11.0,30.0,-999,0.00,,---,-99.99,VWS V14.01,2013-04-06 10:57:00,
2013-04-06 07:02:00,29.9,-99.9,30.12,NNW,329,14.0,17.0,-999,0.00,,---,-99.99,VWS V14.01,2013-04-06 11:02:00,
2013-04-06 07:07:00,29.9,-99.9,30.12,NNW,341,7.0,18.0,-999,0.00,,---,-99.99,VWS V14.01,2013-04-06 11:07:00,
2013-04-06 07:12:00,29.9,-99.9,30.12,West,268,5.0,18.0,-999,0.00,,---,-99.99,VWS V14.01,2013-04-06 11:12:00,
2013-04-06 07:17:00,30.0,-99.9,30.13,North,351,4.0,18.0,-999,0.00,,---,-99.99,VWS V14.01,2013-04-06 11:17:00,
2013-04-06 07:22:00,30.2,-99.9,30.14,WNW,282,6.0,23.0,-999,0.00,,---,-99.99,VWS V14.01,2013-04-06 11:22:00,
2013-04-06 07:27:00,30.5,-99.9,30.14,North,350,11.0,23.0,-999,0.00,,---,-99.99,VWS V14.01,2013-04-06 11:27:00,
2013-04-06 07:32:00,30.9,-99.9,30.14,North,0,14.0,14.0,-999,0.00,,---,-99.99,VWS V14.01,2013-04-06 11:32:00,
2013-04-06 07:33:00,31.0,-99.9,30.14,NNW,333,11.0,15.0,-999,0.00,,---,-99.99,VWS V14.01,2013-04-06 11:33:00,
2013-04-06 07:38:00,30.9,-99.9,30.15,North,359,11.0,20.0,-999,0.00,,---,-99.99,VWS V14.01,2013-04-06 11:38:00,
2013-04-06 07:43:00,30.7,-99.9,30.15,North,1,8.0,20.0,-999,0.00,,---,-99.99,VWS V14.01,2013-04-06 11:43:00,
2013-04-06 07:48:00,30.7,-99.9,30.16,WNW,303,7.0,20.0,-999,0.00,,---,-99.99,VWS V14.01,2013-04-06 11:48:00,
2013-04-06 07:53:00,30.5,-99.9,30.16,NNW,335,7.0,24.0,-999,0.00,,---,-99.99,VWS V14.01,2013-04-06 11:53:00,
2013-04-06 07:58:00,30.5,-99.9,30.16,North,350,3.0,24.0,-999,0.00,,---,-99.99,VWS V14.01,2013-04-06 11:58:00,
2013-04-06 08:03:00,30.7,-99.9,30.16,NNW,342,9.0,24.0,-999,0.00,,---,-99.99,VWS V14.01,2013-04-06 12:03:00,
2013-04-06 08:08:00,30.6,-99.9,30.16,North,6,10.0,24.0,-999,0.00,,---,-99.99,VWS V14.01,2013-04-06 12:08:00,
2013-04-06 08:13:00,30.6,-99.9,30.16,WNW,296,3.0,24.0,-999,0.00,,---,-99.99,VWS V14.01,2013-04-06 12:13:00,
2013-04-06 08:18:00,30.8,-99.9,30.16,NNW,346,6.0,24.0,-999,0.00,,---,-99.99,VWS V14.01,2013-04-06 12:18:00,
2013-04-06 08:23:00,30.6,-99.9,30.16,West,279,10.0,24.0,-999,0.00,,---,-99.99,VWS V14.01,2013-04-06 12:23:00,
2013-04-06 08:28:00,30.6,-99.9,30.17,WNW,293,7.0,24.0,-999,0.00,,---,-99.99,VWS V14.01,2013-04-06 12:28:00,
2013-04-06 08:33:00,30.8,-99.9,30.17,North,3,14.0,21.0,-999,0.00,,---,-99.99,VWS V14.01,2013-04-06 12:33:00,
2013-04-06 08:38:00,30.8,-99.9,30.17,WNW,283,1.0,25.0,-999,0.00,,---,-99.99,VWS V14.01,2013-04-06 12:38:00,
2013-04-06 08:43:00,30.9,-99.9,30.17,NNW,343,12.0,25.0,-999,0.00,,---,-99.99,VWS V14.01,2013-04-06 12:43:00,
2013-04-06 08:48:00,30.7,-99.9,30.17,WNW,292,8.0,25.0,-999,0.00,,---,-99.99,VWS V14.01,2013-04-06 12:48:00,
2013-04-06 08:53:00,31.0,-99.9,30.18,North,0,4.0,25.0,-999,0.00,,---,-99.99,VWS V14.01,2013-04-06 12:53:00,
2013-04-06 08:58:00,31.3,-99.9,30.18,NW,317,4.0,25.0,-999,0.00,,---,-99.99,VWS V14.01,2013-04-06 12:58:00,
2013-04-06 09:03:00,31.4,-99.9,30.18,NNW,333,8.0,16.0,-999,0.00,,---,-99.99,VWS V14.01,2013-04-06 13:03:00,
2013-04-06 09:08:00,31.9,-99.9,30.18,NW,323,2.0,16.0,-999,0.00,,---,-99.99,VWS V14.01,2013-04-06 13:08:00,
2013-04-06 09:13:00,32.3,-99.9,30.18,West,263,9.0,18.0,-999,0.00,,---,-99.99,VWS V14.01,2013-04-06 13:13:00,
2013-04-06 09:18:00,32.5,-99.9,30.18,NNW,329,10.0,19.0,-999,0.00,,---,-99.99,VWS V14.01,2013-04-06 13:18:00,
2013-04-06 09:23:00,32.3,-99.9,30.17,NNW,345,2.0,20.0,-999,0.00,,---,-99.99,VWS V14.01,2013-04-06 13:23:00,
2013-04-06 09:28:00,32.5,-99.9,30.17,NNW,348,4.0,20.0,-999,0.00,,---,-99.99,VWS V14.01,2013-04-06 13:28:00,
2013-04-06 09:33:00,32.5,-99.9,30.18,NW,307,10.0,17.0,-999,0.00,,---,-99.99,VWS V14.01,2013-04-06 13:33:00,
2013-04-06 09:38:00,32.6,-99.9,30.19,NW,309,18.0,22.0,-999,0.00,,---,-99.99,VWS V14.01,2013-04-06 13:38:00,
2013-04-06 09:43:00,32.6,-99.9,30.19,NNW,327,10.0,22.0,-999,0.00,,---,-99.99,VWS V14.01,2013-04-06 13:43:00,
2013-04-06 09:48:00,33.0,-99.9,30.19,NW,326,9.0,22.0,-999,0.00,,---,-99.99,VWS V14.01,2013-04-06 13:48:00,
2013-04-06 09:53:00,33.4,-99.9,30.19,WNW,297,5.0,22.0,-999,0.00,,---,-99.99,VWS V14.01,2013-04-06 13:53:00,
2013-04-06 09:58:00,33.7,-99.9,30.19,West,267,8.0,22.0,-999,0.00,,---,-99.99,VWS V14.01,2013-04-06 13:58:00,
2013-04-06 10:03:00,33.8,-99.9,30.19,North,349,8.0,15.0,-999,0.00,,---,-99.99,VWS V14.01,2013-04-06 14:03:00,
2013-04-06 10:08:00,34.0,-99.9,30.20,NW,316,10.0,21.0,-999,0.00,,---,-99.99,VWS V14.01,2013-04-06 14:08:00,
2013-04-06 10:13:00,34.3,-99.9,30.20,NW,317,13.0,21.0,-999,0.00,,---,-99.99,VWS V14.01,2013-04-06 14:13:00,
2013-04-06 10:18:00,34.5,-99.9,30.20,North,351,6.0,21.0,-999,0.00,,---,-99.99,VWS V14.01,2013-04-06 14:18:00,
2013-04-06 10:23:00,35.0,-99.9,30.20,NW,322,4.0,21.0,-999,0.00,,---,-99.99,VWS V14.01,2013-04-06 14:23:00,
2013-04-06 10:28:00,35.8,-99.9,30.19,North,359,6.0,21.0,-999,0.00,,---,-99.99,VWS V14.01,2013-04-06 14:28:00,
2013-04-06 10:33:00,36.3,-99.9,30.20,WNW,292,11.0,23.0,-999,0.00,,---,-99.99,VWS V14.01,2013-04-06 14:33:00,
2013-04-06 10:38:00,36.1,-99.9,30.20,North,359,12.0,23.0,-999,0.00,,---,-99.99,VWS V14.01,2013-04-06 14:38:00,
2013-04-06 10:43:00,36.0,-99.9,30.20,West,261,5.0,23.0,-999,0.00,,---,-99.99,VWS V14.01,2013-04-06 14:43:00,
2013-04-06 10:48:00,36.1,-99.9,30.20,West,270,6.0,23.0,-999,0.00,,---,-99.99,VWS V14.01,2013-04-06 14:48:00,
2013-04-06 10:53:00,36.4,-99.9,30.20,WNW,291,11.0,23.0,-999,0.00,,---,-99.99,VWS V14.01,2013-04-06 14:53:00,
2013-04-06 10:58:00,36.6,-99.9,30.20,West,270,4.0,23.0,-999,0.00,,---,-99.99,VWS V14.01,2013-04-06 14:58:00,
2013-04-06 11:03:00,37.2,-99.9,30.21,SW,230,9.0,17.0,-999,0.00,,---,-99.99,VWS V14.01,2013-04-06 15:03:00,
2013-04-06 11:08:00,37.3,-99.9,30.21,NNW,347,18.0,22.0,-999,0.00,,---,-99.99,VWS V14.01,2013-04-06 15:08:00,
2013-04-06 11:13:00,36.9,-99.9,30.22,NNW,328,5.0,25.0,-999,0.00,,---,-99.99,VWS V14.01,2013-04-06 15:13:00,
2013-04-06 11:18:00,36.9,-99.9,30.22,North,354,17.0,25.0,-999,0.00,,---,-99.99,VWS V14.01,2013-04-06 15:18:00,
2013-04-06 11:23:00,36.6,-99.9,30.22,North,355,9.0,27.0,-999,0.00,,---,-99.99,VWS V14.01,2013-04-06 15:23:00,
2013-04-06 11:28:00,36.8,-99.9,30.21,NNW,337,17.0,27.0,-999,0.00,,---,-99.99,VWS V14.01,2013-04-06 15:28:00,
2013-04-06 11:33:00,36.7,-99.9,30.21,WNW,294,5.0,16.0,-999,0.00,,---,-99.99,VWS V14.01,2013-04-06 15:33:00,
2013-04-06 11:38:00,37.2,-99.9,30.21,NW,307,10.0,18.0,-999,0.00,,---,-99.99,VWS V14.01,2013-04-06 15:38:00,
2013-04-06 11:43:00,37.2,-99.9,30.21,WNW,287,8.0,20.0,-999,0.00,,---,-99.99,VWS V14.01,2013-04-06 15:43:00,
2013-04-06 11:48:00,37.4,-99.9,30.22,NNE,30,4.0,20.0,-999,0.00,,---,-99.99,VWS V14.01,2013-04-06 15:48:00,
2013-04-06 11:53:00,37.6,-99.9,30.22,WNW,286,11.0,20.0,-999,0.00,,---,-99.99,VWS V14.01,2013-04-06 15:53:00,
2013-04-06 11:58:00,37.8,-99.9,30.22,North,355,15.0,23.0,-999,0.00,,---,-99.99,VWS V14.01,2013-04-06 15:58:00,
2013-04-06 12:03:00,37.4,-99.9,30.22,North,356,14.0,20.0,-999,0.00,,---,-99.99,VWS V14.01,2013-04-06 16:03:00,
2013-04-06 12:08:00,37.4,-99.9,30.21,NW,323,10.0,24.0,-999,0.00,,---,-99.99,VWS V14.01,2013-04-06 16:08:00,
2013-04-06 12:13:00,38.4,-99.9,30.21,WSW,255,4.0,24.0,-999,0.00,,---,-99.99,VWS V14.01,2013-04-06 16:13:00,
2013-04-06 12:18:00,39.1,-99.9,30.21,West,272,4.0,24.0,-999,0.00,,---,-99.99,VWS V14.01,2013-04-06 16:18:00,
2013-04-06 12:23:00,39.5,-99.9,30.21,West,273,3.0,24.0,-999,0.00,,---,-99.99,VWS V14.01,2013-04-06 16:23:00,
2013-04-06 12:28:00,39.8,-99.9,30.21,WNW,303,12.0,24.0,-999,0.00,,---,-99.99,VWS V14.01,2013-04-06 16:28:00,
2013-04-06 12:33:00,39.8,-99.9,30.21,West,270,12.0,16.0,-999,0.00,,---,-99.99,VWS V14.01,2013-04-06 16:33:00,
2013-04-06 12:38:00,40.3,-99.9,30.21,South,179,14.0,23.0,-999,0.00,,---,-99.99,VWS V14.01,2013-04-06 16:38:00,
2013-04-06 12:43:00,40.6,-99.9,30.22,WNW,301,2.0,24.0,-999,0.00,,---,-99.99,VWS V14.01,2013-04-06 16:43:00,
2013-04-06 12:48:00,41.1,-99.9,30.22,South,181,5.0,24.0,-999,0.00,,---,-99.99,VWS V14.01,2013-04-06 16:48:00,
2013-04-06 12:53:00,40.8,-99.9,30.22,NW,317,1.0,24.0,-999,0.00,,---,-99.99,VWS V14.01,2013-04-06 16:53:00,
2013-04-06 12:58:00,40.5,-99.9,30.22,West,269,8.0,24.0,-999,0.00,,---,-99.99,VWS V14.01,2013-04-06 16:58:00,
2013-04-06 13:03:00,41.2,-99.9,30.22,West,273,3.0,14.0,-999,0.00,,---,-99.99,VWS V14.01,2013-04-06 17:03:00,
2013-04-06 13:08:00,41.6,-99.9,30.21,SW,227,3.0,14.0,-999,0.00,,---,-99.99,VWS V14.01,2013-04-06 17:08:00,
2013-04-06 13:13:00,42.1,-99.9,30.22,WSW,257,6.0,16.0,-999,0.00,,---,-99.99,VWS V14.01,2013-04-06 17:13:00,
2013-04-06 13:18:00,41.9,-99.9,30.22,NW,324,11.0,19.0,-999,0.00,,---,-99.99,VWS V14.01,2013-04-06 17:18:00,
2013-04-06 13:23:00,41.5,-99.9,30.21,NW,310,7.0,19.0,-999,0.00,,---,-99.99,VWS V14.01,2013-04-06 17:23:00,
2013-04-06 13:28:00,41.7,-99.9,30.22,West,273,10.0,19.0,-999,0.00,,---,-99.99,VWS V14.01,2013-04-06 17:28:00,
2013-04-06 13:33:00,41.6,-99.9,30.22,NNW,346,6.0,18.0,-999,0.00,,---,-99.99,VWS V14.01,2013-04-06 17:33:00,
2013-04-06 13:38:00,40.6,-99.9,30.22,NW,315,6.0,21.0,-999,0.00,,---,-99.99,VWS V14.01,2013-04-06 17:38:00,
2013-04-06 13:43:00,40.7,-99.9,30.21,NW,314,3.0,21.0,-999,0.00,,---,-99.99,VWS V14.01,2013-04-06 17:43:00,
2013-04-06 13:48:00,41.3,-99.9,30.22,NNW,336,7.0,21.0,-999,0.00,,---,-99.99,VWS V14.01,2013-04-06 17:48:00,
2013-04-06 13:53:00,41.5,-99.9,30.22,NW,314,11.0,21.0,-999,0.00,,---,-99.99,VWS V14.01,2013-04-06 17:53:00,
2013-04-06 13:58:00,41.5,-99.9,30.22,NW,313,3.0,21.0,-999,0.00,,---,-99.99,VWS V14.01,2013-04-06 17:58:00,
2013-04-06 14:03:00,41.6,-99.9,30.22,WNW,291,13.0,13.0,-999,0.00,,---,-99.99,VWS V14.01,2013-04-06 18:03:00,
2013-04-06 14:08:00,41.9,-99.9,30.22,NNW,327,8.0,15.0,-999,0.00,,---,-99.99,VWS V14.01,2013-04-06 18:08:00,
2013-04-06 14:13:00,42.1,-99.9,30.22,WNW,289,2.0,15.0,-999,0.00,,---,-99.99,VWS V14.01,2013-04-06 18:13:00,
2013-04-06 14:18:00,42.3,-99.9,30.22,West,263,4.0,15.0,-999,0.00,,---,-99.99,VWS V14.01,2013-04-06 18:18:00,
2013-04-06 14:23:00,42.7,-99.9,30.22,WSW,247,11.0,16.0,-999,0.00,,---,-99.99,VWS V14.01,2013-04-06 18:23:00,
2013-04-06 14:28:00,43.2,-99.9,30.22,NW,305,5.0,16.0,-999,0.00,,---,-99.99,VWS V14.01,2013-04-06 18:28:00,
2013-04-06 14:33:00,43.3,-99.9,30.22,NW,314,5.0,18.0,-999,0.00,,---,-99.99,VWS V14.01,2013-04-06 18:33:00,
2013-04-06 14:38:00,42.7,-99.9,30.22,WNW,298,6.0,19.0,-999,0.00,,---,-99.99,VWS V14.01,2013-04-06 18:38:00,
2013-04-06 14:43:00,42.9,-99.9,30.22,NNW,332,8.0,20.0,-999,0.00,,---,-99.99,VWS V14.01,2013-04-06 18:43:00,
2013-04-06 14:49:00,42.7,-99.9,30.22,WSW,244,7.0,20.0,-999,0.00,,---,-99.99,VWS V14.01,2013-04-06 18:49:00,
2013-04-06 14:54:00,42.4,-99.9,30.22,West,274,5.0,20.0,-999,0.00,,---,-99.99,VWS V14.01,2013-04-06 18:54:00,
2013-04-06 14:59:00,42.0,-99.9,30.22,NW,316,8.0,20.0,-999,0.00,,---,-99.99,VWS V14.01,2013-04-06 18:59:00,
2013-04-06 15:04:00,42.5,-99.9,30.22,NW,324,3.0,14.0,-999,0.00,,---,-99.99,VWS V14.01,2013-04-06 19:04:00,
2013-04-06 15:09:00,42.8,-99.9,30.22,WSW,257,9.0,18.0,-999,0.00,,---,-99.99,VWS V14.01,2013-04-06 19:09:00,
2013-04-06 15:14:00,42.9,-99.9,30.22,West,261,5.0,20.0,-999,0.00,,---,-99.99,VWS V14.01,2013-04-06 19:14:00,
2013-04-06 15:19:00,43.4,-99.9,30.22,NW,315,5.0,20.0,-999,0.00,,---,-99.99,VWS V14.01,2013-04-06 19:19:00,
2013-04-06 15:24:00,43.5,-99.9,30.22,NW,313,5.0,20.0,-999,0.00,,---,-99.99,VWS V14.01,2013-04-06 19:24:00,
2013-04-06 15:29:00,43.6,-99.9,30.22,West,276,10.0,20.0,-999,0.00,,---,-99.99,VWS V14.01,2013-04-06 19:29:00,
2013-04-06 15:34:00,43.3,-99.9,30.21,North,0,4.0,11.0,-999,0.00,,---,-99.99,VWS V14.01,2013-04-06 19:34:00,
2013-04-06 15:39:00,43.1,-99.9,30.21,West,271,6.0,11.0,-999,0.00,,---,-99.99,VWS V14.01,2013-04-06 19:39:00,
2013-04-06 15:44:00,43.4,-99.9,30.22,West,271,9.0,14.0,-999,0.00,,---,-99.99,VWS V14.01,2013-04-06 19:44:00,
2013-04-06 15:49:00,43.5,-99.9,30.22,WNW,302,4.0,16.0,-999,0.00,,---,-99.99,VWS V14.01,2013-04-06 19:49:00,
2013-04-06 15:54:00,43.4,-99.9,30.22,WNW,286,4.0,16.0,-999,0.00,,---,-99.99,VWS V14.01,2013-04-06 19:54:00,
2013-04-06 15:59:00,43.4,-99.9,30.22,West,274,2.0,16.0,-999,0.00,,---,-99.99,VWS V14.01,2013-04-06 19:59:00,
2013-04-06 16:04:00,43.6,-99.9,30.22,NW,311,10.0,13.0,-999,0.00,,---,-99.99,VWS V14.01,2013-04-06 20:04:00,
2013-04-06 16:09:00,43.5,-99.9,30.22,NW,312,4.0,13.0,-999,0.00,,---,-99.99,VWS V14.01,2013-04-06 20:09:00,
2013-04-06 16:15:00,43.6,-99.9,30.22,West,281,5.0,16.0,-999,0.00,,---,-99.99,VWS V14.01,2013-04-06 20:15:00,
2013-04-06 16:20:00,43.3,-99.9,30.23,NNW,340,6.0,17.0,-999,0.00,,---,-99.99,VWS V14.01,2013-04-06 20:20:00,
2013-04-06 16:25:00,43.2,-99.9,30.23,WSW,257,11.0,17.0,-999,0.00,,---,-99.99,VWS V14.01,2013-04-06 20:25:00,
2013-04-06 16:30:00,43.6,-99.9,30.23,WSW,249,4.0,17.0,-999,0.00,,---,-99.99,VWS V14.01,2013-04-06 20:30:00,
2013-04-06 16:35:00,43.8,-99.9,30.23,WNW,302,3.0,11.0,-999,0.00,,---,-99.99,VWS V14.01,2013-04-06 20:35:00,
2013-04-06 16:40:00,43.8,-99.9,30.23,NW,314,4.0,16.0,-999,0.00,,---,-99.99,VWS V14.01,2013-04-06 20:40:00,
2013-04-06 16:45:00,43.8,-99.9,30.23,WNW,294,4.0,16.0,-999,0.00,,---,-99.99,VWS V14.01,2013-04-06 20:45:00,
2013-04-06 16:50:00,44.0,-99.9,30.23,West,279,1.0,16.0,-999,0.00,,---,-99.99,VWS V14.01,2013-04-06 20:50:00,
2013-04-06 16:55:00,44.1,-99.9,30.23,WSW,244,4.0,16.0,-999,0.00,,---,-99.99,VWS V14.01,2013-04-06 20:55:00,
2013-04-06 17:00:00,44.2,-99.9,30.23,West,277,7.0,16.0,-999,0.00,,---,-99.99,VWS V14.01,2013-04-06 21:00:00,
2013-04-06 17:05:00,43.9,-99.9,30.24,NW,318,8.0,11.0,-999,0.00,,---,-99.99,VWS V14.01,2013-04-06 21:05:00,
2013-04-06 17:10:00,43.9,-99.9,30.24,West,280,4.0,13.0,-999,0.00,,---,-99.99,VWS V14.01,2013-04-06 21:10:00,
2013-04-06 17:15:00,43.9,-99.9,30.24,NW,305,5.0,13.0,-999,0.00,,---,-99.99,VWS V14.01,2013-04-06 21:15:00,
2013-04-06 17:20:00,43.7,-99.9,30.24,WNW,287,6.0,13.0,-999,0.00,,---,-99.99,VWS V14.01,2013-04-06 21:20:00,
2013-04-06 17:25:00,43.7,-99.9,30.25,West,271,7.0,13.0,-999,0.00,,---,-99.99,VWS V14.01,2013-04-06 21:25:00,
2013-04-06 17:30:00,43.8,-99.9,30.25,North,357,5.0,13.0,-999,0.00,,---,-99.99,VWS V14.01,2013-04-06 21:30:00,
2013-04-06 17:35:00,43.7,-99.9,30.25,WNW,292,1.0,7.0,-999,0.00,,---,-99.99,VWS V14.01,2013-04-06 21:35:00,
2013-04-06 17:40:00,43.8,-99.9,30.25,WSW,253,4.0,13.0,-999,0.00,,---,-99.99,VWS V14.01,2013-04-06 21:40:00,
2013-04-06 17:45:00,43.7,-99.9,30.25,WNW,296,3.0,13.0,-999,0.00,,---,-99.99,VWS V14.01,2013-04-06 21:45:00,
2013-04-06 17:50:00,43.5,-99.9,30.26,WNW,286,2.0,13.0,-999,0.00,,---,-99.99,VWS V14.01,2013-04-06 21:50:00,
2013-04-06 17:55:00,43.4,-99.9,30.26,WSW,253,3.0,13.0,-999,0.00,,---,-99.99,VWS V14.01,2013-04-06 21:55:00,
2013-04-06 18:00:00,43.4,-99.9,30.26,West,269,6.0,13.0,-999,0.00,,---,-99.99,VWS V14.01,2013-04-06 22:00:00,
2013-04-06 18:05:00,43.2,-99.9,30.26,West,266,8.0,11.0,-999,0.00,,---,-99.99,VWS V14.01,2013-04-06 22:05:00,
2013-04-06 18:10:00,43.0,-99.9,30.27,NW,305,7.0,11.0,-999,0.00,,---,-99.99,VWS V14.01,2013-04-06 22:10:00,
2013-04-06 18:15:00,42.6,-99.9,30.27,North,349,5.0,11.0,-999,0.00,,---,-99.99,VWS V14.01,2013-04-06 22:15:00,
2013-04-06 18:20:00,42.4,-99.9,30.27,WSW,251,6.0,11.0,-999,0.00,,---,-99.99,VWS V14.01,2013-04-06 22:20:00,
2013-04-06 18:25:00,42.3,-99.9,30.27,NW,320,10.0,11.0,-999,0.00,,---,-99.99,VWS V14.01,2013-04-06 22:25:00,
2013-04-06 18:30:00,42.3,-99.9,30.28,West,277,3.0,15.0,-999,0.00,,---,-99.99,VWS V14.01,2013-04-06 22:30:00,
2013-04-06 18:35:00,42.1,-99.9,30.28,WNW,301,2.0,12.0,-999,0.00,,---,-99.99,VWS V14.01,2013-04-06 22:35:00,
2013-04-06 18:40:00,42.1,-99.9,30.29,WNW,302,7.0,12.0,-999,0.00,,---,-99.99,VWS V14.01,2013-04-06 22:40:00,
2013-04-06 18:45:00,41.9,-99.9,30.29,WNW,298,2.0,12.0,-999,0.00,,---,-99.99,VWS V14.01,2013-04-06 22:45:00,
2013-04-06 18:50:00,41.8,-99.9,30.28,WNW,299,0.0,12.0,-999,0.00,,---,-99.99,VWS V14.01,2013-04-06 22:50:00,
2013-04-06 18:55:00,41.5,-99.9,30.29,WNW,299,2.0,12.0,-999,0.00,,---,-99.99,VWS V14.01,2013-04-06 22:55:00,
2013-04-06 19:00:00,41.3,-99.9,30.29,NW,309,5.0,12.0,-999,0.00,,---,-99.99,VWS V14.01,2013-04-06 23:00:00,
2013-04-06 19:05:00,41.2,-99.9,30.29,WNW,302,0.0,6.0,-999,0.00,,---,-99.99,VWS V14.01,2013-04-06 23:05:00,
2013-04-06 19:10:00,41.2,-99.9,30.30,WNW,302,0.0,6.0,-999,0.00,,---,-99.99,VWS V14.01,2013-04-06 23:10:00,
2013-04-06 19:15:00,40.9,-99.9,30.30,WNW,302,0.0,6.0,-999,0.00,,---,-99.99,VWS V14.01,2013-04-06 23:15:00,
2013-04-06 19:20:00,40.7,-99.9,30.30,WNW,302,0.0,6.0,-999,0.00,,---,-99.99,VWS V14.01,2013-04-06 23:20:00,
2013-04-06 19:25:00,40.4,-99.9,30.30,WNW,302,0.0,6.0,-999,0.00,,---,-99.99,VWS V14.01,2013-04-06 23:25:00,
2013-04-06 19:30:00,40.1,-99.9,30.30,WNW,302,0.0,6.0,-999,0.00,,---,-99.99,VWS V14.01,2013-04-06 23:30:00,
2013-04-06 19:35:00,39.7,-99.9,30.31,WNW,302,0.0,0.0,-999,0.00,,---,-99.99,VWS V14.01,2013-04-06 23:35:00,
2013-04-06 19:40:00,39.4,-99.9,30.31,WNW,302,0.0,0.0,-999,0.00,,---,-99.99,VWS V14.01,2013-04-06 23:40:00,
2013-04-06 19:45:00,39.1,-99.9,30.31,WNW,302,0.0,0.0,-999,0.00,,---,-99.99,VWS V14.01,2013-04-06 23:45:00,
2013-04-06 19:50:00,38.4,-99.9,30.31,WNW,302,0.0,0.0,-999,0.00,,---,-99.99,VWS V14.01,2013-04-06 23:50:00,
2013-04-06 19:55:00,37.9,-99.9,30.32,WNW,302,0.0,0.0,-999,0.00,,---,-99.99,VWS V14.01,2013-04-06 23:55:00,
2013-04-06 20:00:00,37.5,-99.9,30.32,WNW,302,0.0,0.0,-999,0.00,,---,-99.99,VWS V14.01,2013-04-07 00:00:00,
2013-04-06 20:05:00,37.1,-99.9,30.32,WNW,302,0.0,0.0,-999,0.00,,---,-99.99,VWS V14.01,2013-04-07 00:05:00,
2013-04-06 20:10:00,36.9,-99.9,30.33,WNW,302,0.0,0.0,-999,0.00,,---,-99.99,VWS V14.01,2013-04-07 00:10:00,
2013-04-06 20:15:00,36.5,-99.9,30.33,WNW,302,0.0,0.0,-999,0.00,,---,-99.99,VWS V14.01,2013-04-07 00:15:00,
2013-04-06 20:20:00,36.2,-99.9,30.33,WNW,302,0.0,0.0,-999,0.00,,---,-99.99,VWS V14.01,2013-04-07 00:20:00,
2013-04-06 20:25:00,35.9,-99.9,30.34,WNW,302,0.0,0.0,-999,0.00,,---,-99.99,VWS V14.01,2013-04-07 00:25:00,
2013-04-06 20:30:00,35.3,-99.9,30.34,WNW,302,0.0,0.0,-999,0.00,,---,-99.99,VWS V14.01,2013-04-07 00:30:00,
2013-04-06 20:35:00,34.3,-99.9,30.34,WNW,302,0.0,0.0,-999,0.00,,---,-99.99,VWS V14.01,2013-04-07 00:35:00,
2013-04-06 20:40:00,33.9,-99.9,30.34,WNW,302,0.0,0.0,-999,0.00,,---,-99.99,VWS V14.01,2013-04-07 00:40:00,
2013-04-06 20:45:00,33.7,-99.9,30.34,WNW,302,0.0,0.0,-999,0.00,,---,-99.99,VWS V14.01,2013-04-07 00:45:00,
2013-04-06 20:50:00,33.6,-99.9,30.34,WNW,302,0.0,1.0,-999,0.00,,---,-99.99,VWS V14.01,2013-04-07 00:50:00,
2013-04-06 20:55:00,33.5,-99.9,30.34,WNW,302,0.0,1.0,-999,0.00,,---,-99.99,VWS V14.01,2013-04-07 00:55:00,
2013-04-06 21:00:00,33.2,-99.9,30.34,WNW,302,0.0,1.0,-999,0.00,,---,-99.99,VWS V14.01,2013-04-07 01:00:00,
2013-04-06 21:05:00,32.8,-99.9,30.34,WNW,302,0.0,0.0,-999,0.00,,---,-99.99,VWS V14.01,2013-04-07 01:05:00,
2013-04-06 21:10:00,32.3,-99.9,30.34,WNW,302,0.0,3.0,-999,0.00,,---,-99.99,VWS V14.01,2013-04-07 01:10:00,
2013-04-06 21:15:00,31.9,-99.9,30.34,WNW,302,0.0,3.0,-999,0.00,,---,-99.99,VWS V14.01,2013-04-07 01:15:00,
2013-04-06 21:20:00,31.7,-99.9,30.34,WNW,302,0.0,3.0,-999,0.00,,---,-99.99,VWS V14.01,2013-04-07 01:20:00,
2013-04-06 21:25:00,31.6,-99.9,30.34,WNW,302,0.0,3.0,-999,0.00,,---,-99.99,VWS V14.01,2013-04-07 01:25:00,
2013-04-06 21:30:00,31.5,-99.9,30.35,WNW,302,1.0,1.0,-999,0.00,,---,-99.99,VWS V14.01,2013-04-07 01:30:00,
2013-04-06 21:35:00,31.3,-99.9,30.34,WNW,302,0.0,2.0,-999,0.00,,---,-99.99,VWS V14.01,2013-04-07 01:35:00,
2013-04-06 21:40:00,31.1,-99.9,30.34,WNW,302,0.0,2.0,-999,0.00,,---,-99.99,VWS V14.01,2013-04-07 01:40:00,
2013-04-06 21:45:00,30.9,-99.9,30.35,WNW,302,0.0,2.0,-999,0.00,,---,-99.99,VWS V14.01,2013-04-07 01:45:00,
2013-04-06 21:50:00,30.7,-99.9,30.34,WNW,302,0.0,2.0,-999,0.00,,---,-99.99,VWS V14.01,2013-04-07 01:50:00,
2013-04-06 21:55:00,30.5,-99.9,30.34,WNW,302,0.0,2.0,-999,0.00,,---,-99.99,VWS V14.01,2013-04-07 01:55:00,
2013-04-06 22:00:00,30.2,-99.9,30.35,WNW,302,0.0,0.0,-999,0.00,,---,-99.99,VWS V14.01,2013-04-07 02:00:00,
2013-04-06 22:05:00,30.0,-99.9,30.35,WNW,302,0.0,0.0,-999,0.00,,---,-99.99,VWS V14.01,2013-04-07 02:05:00,
2013-04-06 22:10:00,29.8,-99.9,30.35,WNW,302,0.0,0.0,-999,0.00,,---,-99.99,VWS V14.01,2013-04-07 02:10:00,
2013-04-06 22:15:00,29.7,-99.9,30.35,WNW,302,0.0,0.0,-999,0.00,,---,-99.99,VWS V14.01,2013-04-07 02:15:00,
2013-04-06 22:20:00,29.5,-99.9,30.35,WNW,302,0.0,0.0,-999,0.00,,---,-99.99,VWS V14.01,2013-04-07 02:20:00,
2013-04-06 22:25:00,29.4,-99.9,30.35,WNW,302,0.0,0.0,-999,0.00,,---,-99.99,VWS V14.01,2013-04-07 02:25:00,
2013-04-06 22:30:00,29.2,-99.9,30.35,WNW,302,0.0,0.0,-999,0.00,,---,-99.99,VWS V14.01,2013-04-07 02:30:00,
2013-04-06 22:35:00,29.1,-99.9,30.35,WNW,302,0.0,0.0,-999,0.00,,---,-99.99,VWS V14.01,2013-04-07 02:35:00,
2013-04-06 22:40:00,29.0,-99.9,30.35,WNW,302,0.0,0.0,-999,0.00,,---,-99.99,VWS V14.01,2013-04-07 02:40:00,
2013-04-06 22:45:00,28.9,-99.9,30.36,WNW,302,0.0,0.0,-999,0.00,,---,-99.99,VWS V14.01,2013-04-07 02:45:00,
2013-04-06 22:50:00,28.7,-99.9,30.36,WNW,302,0.0,0.0,-999,0.00,,---,-99.99,VWS V14.01,2013-04-07 02:50:00,
2013-04-06 22:55:00,28.5,-99.9,30.36,WNW,302,0.0,0.0,-999,0.00,,---,-99.99,VWS V14.01,2013-04-07 02:55:00,
2013-04-06 23:00:00,28.1,-99.9,30.36,WNW,302,0.0,0.0,-999,0.00,,---,-99.99,VWS V14.01,2013-04-07 03:00:00,
2013-04-06 23:05:00,28.0,-99.9,30.36,WNW,302,0.0,0.0,-999,0.00,,---,-99.99,VWS V14.01,2013-04-07 03:05:00,
2013-04-06 23:10:00,28.0,-99.9,30.36,WNW,302,0.0,0.0,-999,0.00,,---,-99.99,VWS V14.01,2013-04-07 03:10:00,
2013-04-06 23:15:00,28.0,-99.9,30.36,WNW,302,0.0,0.0,-999,0.00,,---,-99.99,VWS V14.01,2013-04-07 03:15:00,
2013-04-06 23:20:00,27.9,-99.9,30.36,WNW,302,0.0,0.0,-999,0.00,,---,-99.99,VWS V14.01,2013-04-07 03:20:00,
2013-04-06 23:26:00,27.9,-99.9,30.36,WNW,302,0.0,0.0,-999,0.00,,---,-99.99,VWS V14.01,2013-04-07 03:26:00,
2013-04-06 23:31:00,27.8,-99.9,30.36,WNW,302,0.0,0.0,-999,0.00,,---,-99.99,VWS V14.01,2013-04-07 03:31:00,
2013-04-06 23:36:00,27.6,-99.9,30.36,WNW,302,0.0,0.0,-999,0.00,,---,-99.99,VWS V14.01,2013-04-07 03:36:00,
2013-04-06 23:41:00,27.4,-99.9,30.36,WNW,302,0.0,0.0,-999,0.00,,---,-99.99,VWS V14.01,2013-04-07 03:41:00,
2013-04-06 23:46:00,27.2,-99.9,30.36,WNW,302,0.0,0.0,-999,0.00,,---,-99.99,VWS V14.01,2013-04-07 03:46:00,
2013-04-06 23:51:00,27.1,-99.9,30.36,WNW,302,0.0,0.0,-999,0.00,,---,-99.99,VWS V14.01,2013-04-07 03:51:00,
2013-04-06 23:56:00,27.1,-99.9,30.36,WNW,302,0.0,0.0,-999,0.00,,---,-99.99,VWS V14.01,2013-04-07 03:56:00,